Location: Stuttgart
(48.7824°N, 9.1964°E)
Time: 00:38:33
(UTC+01:00)

ISS - Pass Details

Date: 02 February 2019
Orbit: 403 x 411 km, 51.6° (Epoch: 22 February)

Event Time Altitude Azimuth Distance (km) Brightness Sun altitude
Rises 18:02:34 0° 276° (W) 2,333 1.4 -7.0°
Reaches altitude 10° 18:04:42 10° 282° (WNW) 1,474 0.1 -7.4°
Maximum altitude 18:07:55 49° 359° (N) 540 -3.3 -7.9°
Enters shadow 18:10:55 12° 75° (ENE) 1,386 -1.8 -8.4°
